Date String (YYYY-MM-DD hh:mm:ss) UTC,Instrument flags,Ambient pressure (hPa),Sample flow (lpm),Bypass flow (lpm),Sample temperature (°C),Ambient temperature (°C),ASC tube jacket temperature (°C),LED temperature (°C),Box temperature (°C),Sample RH (%),Span deviation,Mass concentration (μg/m³),Mass concentration (μg/m³),Mass concentration (μg/m³)
DateTimeUTC,F1_M11,P_M11,Q1_M11,Q2_M11,T1_M11,T2_M11,T3_M11,T4_M11,T5_M11,U1_M11,ZSPAN_M11,X2_M11,X0_M11,X1_M11
2023-02-02 02:00:00,,0826.4,4.99,0.00,26.4,24.7,00.0,35.2,28.1,07.0,0001.4,0010.86,0021.80,0009.57
2023-02-02 02:01:00,,0826.5,5.00,0.00,26.4,24.7,00.0,35.2,28.1,07.0,0000.0,0010.78,0020.88,0009.45
2023-02-02 02:02:00,,0826.4,5.00,0.00,26.3,24.7,00.0,35.2,28.1,07.0,0000.8,0010.69,0020.88,0009.35
2023-02-02 02:03:00,,0826.4,5.00,0.00,26.3,24.7,00.0,35.2,28.1,07.0,0000.3,0010.60,0020.54,0009.25
2023-02-02 02:04:00,,0826.3,5.01,0.00,26.3,24.6,00.0,35.2,28.1,07.1,0001.0,0010.46,0021.28,0009.15
2023-02-02 02:05:00,,0826.3,5.01,0.00,26.3,24.6,00.0,35.2,28.1,07.1,0001.0,0010.38,0021.46,0009.09
2023-02-02 02:06:00,,0826.3,5.00,0.00,26.3,24.6,00.0,35.2,28.1,07.1,0000.0,0010.26,0020.80,0009.03
2023-02-02 02:07:00,,0826.3,5.00,0.00,26.3,24.6,00.0,35.2,28.1,07.1,0000.0,0010.18,0021.82,0008.96
2023-02-02 02:08:00,,0826.3,5.00,0.00,26.3,24.6,00.0,35.2,28.1,07.1,0000.0,0010.05,0021.32,0008.89
2023-02-02 02:09:00,,0826.3,4.99,0.00,26.3,24.6,00.0,35.1,28.1,07.1,0000.0,0010.03,0021.42,0008.86
2023-02-02 02:10:00,,0826.3,4.99,0.00,26.3,24.6,00.0,35.1,28.0,07.1,0000.9,0009.98,0021.29,0008.84
2023-02-02 02:11:00,,0826.2,5.00,0.00,26.3,24.5,00.0,35.1,28.0,07.1,0002.1,0009.96,0021.12,0008.83
2023-02-02 02:12:00,,0826.2,5.00,0.00,26.2,24.5,00.0,35.1,28.0,07.1,0001.2,0009.98,0021.38,0008.85
2023-02-02 02:13:00,,0826.4,4.99,0.00,26.2,24.6,00.0,35.1,28.0,07.2,0000.0,0010.09,0021.60,0008.93
2023-02-02 02:14:00,,0826.3,5.01,0.00,26.2,24.5,00.0,35.1,28.0,07.3,0000.0,0010.25,0021.62,0009.05
2023-02-02 02:15:00,,0826.2,4.99,0.00,26.2,24.5,00.0,35.1,28.0,07.3,0000.0,0010.38,0020.86,0009.13
2023-02-02 02:16:00,,0826.2,5.00,0.00,26.2,24.5,00.0,35.1,28.0,07.3,0000.0,0010.48,0021.06,0009.19
2023-02-02 02:17:00,,0826.2,5.00,0.00,26.2,24.5,00.0,35.1,28.0,07.2,0000.0,0010.54,0021.64,0009.25
2023-02-02 02:18:00,,0826.2,5.01,0.00,26.2,24.5,00.0,35.0,27.9,07.2,0000.0,0010.60,0020.83,0009.30
2023-02-02 02:19:00,,0826.4,5.00,0.00,26.2,24.4,00.0,35.0,27.9,07.2,0000.0,0010.64,0021.33,0009.34
2023-02-02 02:20:00,,0826.4,5.00,0.00,26.2,24.4,00.0,35.0,27.9,07.2,0000.0,0010.64,0022.13,0009.39
2023-02-02 02:21:00,,0826.2,5.00,0.00,26.1,24.4,00.0,35.0,27.9,07.2,0000.0,0010.67,0022.61,0009.44
2023-02-02 02:22:00,,0826.3,5.00,0.00,26.1,24.4,00.0,35.0,27.9,07.2,0000.0,0010.73,0022.32,0009.49
2023-02-02 02:23:00,,0826.3,4.99,0.00,26.1,24.4,00.0,35.0,27.9,07.2,0000.0,0010.72,0022.14,0009.51
2023-02-02 02:24:00,,0826.4,5.00,0.00,26.1,24.4,00.0,35.0,27.9,07.2,0000.0,0010.67,0022.02,0009.50
2023-02-02 02:25:00,,0826.4,5.00,0.00,26.1,24.4,00.0,35.0,27.9,07.2,0000.0,0010.60,0022.78,0009.46
2023-02-02 02:26:00,,0826.4,4.99,0.00,26.1,24.4,00.0,35.0,27.9,07.2,0000.0,0010.54,0023.09,0009.41
2023-02-02 02:27:00,,0826.3,5.00,0.00,26.1,24.4,00.0,35.0,27.9,07.2,0000.0,0010.49,0022.88,0009.38
2023-02-02 02:28:00,,0826.2,5.01,0.00,26.1,24.4,00.0,34.9,27.9,07.2,0000.0,0010.44,0022.05,0009.34
2023-02-02 02:29:00,,0826.2,5.00,0.00,26.1,24.4,00.0,34.9,27.8,07.2,0000.0,0010.43,0023.29,0009.33
2023-02-02 02:30:00,,0826.2,5.00,0.00,26.1,24.4,00.0,34.9,27.8,07.2,0000.0,0010.47,0023.21,0009.35
2023-02-02 02:31:00,,0826.3,5.00,0.00,26.0,24.4,00.0,34.9,27.8,07.2,0000.0,0010.50,0023.12,0009.35
2023-02-02 02:32:00,,0826.3,5.01,0.00,26.0,24.4,00.0,34.9,27.8,07.2,0000.0,0010.54,0023.08,0009.35
2023-02-02 02:33:00,,0826.3,5.00,0.00,26.0,24.4,00.0,34.9,27.8,07.2,0000.0,0010.57,0024.00,0009.34
2023-02-02 02:34:00,,0826.2,5.00,0.00,26.0,24.4,00.0,34.9,27.8,07.2,0003.3,0010.63,0024.55,0009.35
2023-02-02 02:35:00,,0826.2,4.99,0.00,26.0,24.3,00.0,34.9,27.8,07.3,0003.5,0010.62,0023.79,0009.34
2023-02-02 02:36:00,,0826.2,5.00,0.00,26.0,24.3,00.0,34.9,27.8,07.3,0001.1,0010.58,0022.75,0009.34
2023-02-02 02:37:00,,0826.2,5.00,0.00,26.0,24.3,00.0,34.9,27.8,07.3,0000.0,0010.58,0022.20,0009.34
2023-02-02 02:38:00,,0826.2,5.00,0.00,26.0,24.3,00.0,34.8,27.8,07.3,0000.2,0010.57,0022.55,0009.33
2023-02-02 02:39:00,,0826.2,5.00,0.00,26.0,24.3,00.0,34.8,27.8,07.3,0000.6,0010.57,0022.86,0009.33
2023-02-02 02:40:00,,0826.2,4.99,0.00,26.0,24.3,00.0,34.8,27.7,07.3,0000.0,0010.53,0022.61,0009.31
2023-02-02 02:41:00,,0826.2,5.00,0.00,25.9,24.3,00.0,34.8,27.7,07.3,0000.9,0010.48,0022.14,0009.27
2023-02-02 02:42:00,,0826.2,5.00,0.00,25.9,24.3,00.0,34.8,27.7,07.3,0002.3,0010.41,0021.32,0009.26
2023-02-02 02:43:00,,0826.2,5.00,0.00,25.9,24.3,00.0,34.8,27.7,07.3,0002.7,0010.38,0021.15,0009.25
2023-02-02 02:44:00,,0826.2,5.00,0.00,25.9,24.2,00.0,34.8,27.7,07.3,0002.1,0010.35,0020.33,0009.24
2023-02-02 02:45:00,,0826.2,5.01,0.00,25.9,24.2,00.0,34.8,27.7,07.3,0000.0,0010.33,0020.10,0009.25
2023-02-02 02:46:00,,0826.2,5.00,0.00,25.9,24.2,00.0,34.8,27.7,07.3,0000.0,0010.37,0020.59,0009.29
2023-02-02 02:47:00,,0826.2,5.00,0.00,25.9,24.2,00.0,34.8,27.6,07.3,0000.0,0010.44,0021.57,0009.30
2023-02-02 02:48:00,,0826.3,5.00,0.00,25.9,24.2,00.0,34.7,27.6,07.3,0000.0,0010.45,0022.57,0009.33
2023-02-02 02:49:00,,0826.4,5.00,0.00,25.8,24.2,00.0,34.7,27.6,07.3,0000.0,0010.45,0022.59,0009.37
2023-02-02 02:50:00,,0826.2,5.00,0.00,25.8,24.2,00.0,34.7,27.6,07.3,0000.0,0010.49,0022.03,0009.40
2023-02-02 02:51:00,,0826.2,4.99,0.00,25.8,24.1,00.0,34.7,27.6,07.3,0000.0,0010.57,0021.06,0009.45
2023-02-02 02:52:00,,0826.2,5.01,0.00,25.8,24.1,00.0,34.7,27.6,07.4,0000.0,0010.68,0020.76,0009.55
2023-02-02 02:53:00,,0826.2,4.99,0.00,25.8,24.1,00.0,34.7,27.6,07.5,0000.0,0010.82,0020.86,0009.67
2023-02-02 02:54:00,,0826.2,5.01,0.00,25.8,24.1,00.0,34.7,27.6,07.5,0000.0,0010.91,0020.62,0009.78
2023-02-02 02:55:00,,0826.2,5.01,0.00,25.8,24.1,00.0,34.7,27.6,07.5,0000.0,0011.04,0021.09,0009.89
2023-02-02 02:56:00,,0826.2,4.99,0.00,25.8,24.1,00.0,34.7,27.6,07.5,0000.0,0011.17,0021.16,0009.98
2023-02-02 02:57:00,,0826.2,5.01,0.00,25.8,24.1,00.0,34.6,27.6,07.5,0000.0,0011.27,0020.87,0010.07
2023-02-02 02:58:00,,0826.1,5.01,0.00,25.7,24.1,00.0,34.6,27.5,07.6,0000.0,0011.42,0020.39,0010.24
2023-02-02 02:59:00,,0826.2,5.00,0.00,25.7,24.0,00.0,34.6,27.5,07.6,0000.0,0011.55,0019.99,0010.37
